Content
SEND FEEDBACK

Daily
Averages
Monthly
Summary
United States of America

COOKVILLE, KANSAS


Home > North America > United States > Kansas
Elevation: 759 feet     Latitude: 37 05N     Longitude: 095 34W

WEATHER
 
SELECT A DAY
Number of Records: 181,603;   Date Range: 7/1/96 - 11/25/14
 
SHARE

PRINT THIS DATA

[ ← Previous Day ]
WEATHER ALMANAC - JANUARY 23, 2013
[ Next Day → ]
[ °C ]   °F
Weather ElementAverageHighLow
Temperature38.7 °F57 °F (2:52 pm)19.9 °F (7:52 am)
Dewpoint26.8 °F36 °F (2:52 pm)17.1 °F (2:52 am)
Humidity64.4 %89 % (7:52 am)45 % (2:52 pm)
Barometer30.24 in30.31 in (11:52 pm)30.17 in (2:52 pm)
Wind Speed4.1 mph15 mph (11:52 pm)
Weather ElementAverage
Visibility9.8 mi
Wind DirectionNE (50 °)

Weather ElementTotal
Precipitation---
Heating Degree Days26.6 (Base 65)
Averaged from 21 records on January 23, 2013
WEATHER CONDITIONS BREAKOUT
WIND DIRECTION BREAKOUT
WEATHER BY HOUR - JANUARY 23, 2013
[ °C ]   °F
Local TimeTemperatureDewpointHumidityBarometerVisibilityWind DirectionWind SpeedGust SpeedPrecipitationEventsConditions
2:52 AM23.0 °F17.1 °F78 %30.27 in10.0 miCalmClear
3:52 AM21.9 °F17.1 °F82 %30.26 in10.0 miCalmClear
4:52 AM21.9 °F17.1 °F82 %30.24 in10.0 miCalmClear
5:52 AM21.0 °F17.1 °F85 %30.25 in9.0 miCalmClear
6:52 AM21.0 °F17.1 °F85 %30.26 in10.0 miCalmClear
7:52 AM19.9 °F17.1 °F89 %30.27 in8.0 miCalmClear
8:52 AM27.0 °F21.9 °F81 %30.27 in9.0 miCalmClear
9:52 AM36.0 °F27.0 °F70 %30.28 in10.0 miSSW (200°)6.9 mphClear
10:52 AM41.0 °F28.0 °F60 %30.27 in10.0 miSSW (210°)5.8 mphClear
11:52 AM46.9 °F32.0 °F56 %30.24 in10.0 miWSW (240°)4.6 mphClear
12:52 PM51.1 °F34.0 °F52 %30.19 in10.0 miCalmClear
1:52 PM55.0 °F35.1 °F47 %30.18 in10.0 miCalmClear
2:52 PM57.0 °F36.0 °F45 %30.17 in10.0 miENE (70°)3.5 mphClear
3:52 PM57.0 °F36.0 °F45 %30.17 in10.0 miNE (50°)4.6 mphClear
4:52 PM55.9 °F36.0 °F47 %30.17 in10.0 miNE (40°)3.5 mphClear
5:52 PM52.0 °F36.0 °F54 %30.18 in10.0 miENE (60°)3.5 mphClear
7:52 PM42.1 °F32.0 °F67 %30.24 in10.0 miNNE (30°)8.1 mphClear
8:52 PM43.0 °F30.9 °F62 %30.26 in10.0 miNE (40°)10.4 mphClear
9:52 PM41.0 °F27.0 °F57 %30.28 in10.0 miNE (40°)9.2 mphClear
10:52 PM39.9 °F25.0 °F55 %30.30 in10.0 miNNE (30°)11.5 mphClear
11:52 PM39.0 °F23.0 °F53 %30.31 in10.0 miNE (40°)15.0 mphClear
Hourly data recorded from KCFV, located miles away from Cookville, Kansas







STORIES FROM OUR PARTNERS